Regional Weather Roundup
Issued by NWS Cleveland, OH

Home | Current Version | Previous Version | Graphics & Text | Print | Product List | Glossary On
Versions: 1 2 3 4 5 6 7 8 9 10 11 12 13 14 15 16 17 18 19 20 21 22 23 24 25 26 27 28 29 30 31 32 33 34 35 36 37 38 39 40 41 42 43 44 45 46 47 48 49 50
000
ASUS41 KCLE 092012
RWRCLE
OHIO REGIONAL WEATHER ROUNDUP
NATIONAL WEATHER SERVICE WILMINGTON, OH
300 PM EST FRI DEC 09 2016

NOTE: "FAIR" INDICATES FEW OR NO CLOUDS BELOW 12,000 FEET WITH NO
SIGNIFICANT WEATHER AND/OR OBSTRUCTIONS TO VISIBILITY.

OHZ001>008-015>018-024>027-034-035-043-044-092100-
   NORTHWEST OHIO

CITY           SKY/WX    TMP DP  RH WIND       PRES   REMARKS
DEFIANCE       CLOUDY    30  19  63 W8        30.42F WCI  22
FINDLAY        FLURRIES  29  21  72 W14       30.41F WCI  18
TOLEDO EXPRESS CLOUDY    29  23  78 W13       30.39F WCI  19
TOLEDO EXEC    PTSUNNY   30  24  78 W12       30.41S WCI  20
LIMA           FLURRIES  25  22  88 W13       30.42F WCI  14
$$

OHZ009>014-019>023-028>033-038-089-092100-
   NORTHEAST OHIO

CITY           SKY/WX    TMP DP  RH WIND       PRES   REMARKS
CLE-HOPKINS    CLOUDY    32  19  58 SW21      30.39S WCI  20
CLE-LAKEFRONT  LGT SNOW  30  23  75 SW20G28   30.36R WCI  17
CUY CO. ARPT   LGT SNOW  30  25  80 W12G23    30.35R WCI  21
LORAIN-ELYRIA  CLOUDY    28  20  71 W14       30.39S WCI  17
ASHTABULA      LGT SNOW  27  25  92 W13       30.33R VSB 3/4 WCI  16
AKRON-CANTON   FLURRIES  27  18  69 W13       30.36S WCI  16
WOOSTER        LGT SNOW  25  20  81 W12       30.39R WCI  14
MANSFIELD      LGT SNOW  24  20  84 SW7       30.38S VSB 1   WCI  16
YOUNGSTOWN     FLURRIES  28  19  69 W13       30.32R WCI  17
$$

OHZ042-051>053-060>062-070>072-077>081-092100-
  SOUTHWEST OHIO

CITY           SKY/WX    TMP DP  RH WIND       PRES   REMARKS
CINC-COVINGTON FLURRIES  24  13  62 W7        30.51S WCI  16
CINC-LUNKEN    CLOUDY    27  15  61 W6        30.55S WCI  20
HAMILTON       CLOUDY    28  16  60 NW6       30.52F WCI  22
DAYTON         LGT SNOW  25  17  72 W10       30.47S WCI  15
WRIGHT-PAT AFB FLURRIES  27  17  67 W12       30.47S WCI  16
DAYTON GENERAL CLOUDY    27  16  63 W10       30.47F WCI  17
WILMINGTON     CLOUDY    25  15  66 W12       30.46F WCI  14
$$

OHZ036-037-039>041-045>050-054>059-063>069-073>076-082>088-092100-
  CENTRAL AND SOUTHEAST OHIO

CITY           SKY/WX    TMP DP  RH WIND       PRES   REMARKS
COLUMBUS       LGT SNOW  27  21  78 NW12      30.45S WCI  17
OSU AIRPORT    CLOUDY    27  19  72 W12       30.44S WCI  17
BOLTON FIELD   CLOUDY    28  18  64 W10       30.45S WCI  19
RICKENBACK AFB   N/A     28  17  62 W12       30.46S WCI  18
NEWARK         CLOUDY    27  19  72 W9        30.43S WCI  18
MARION         LGT SNOW  25  21  85 W13       30.42S FOG     WCI  14
LANCASTER      CLOUDY    28  17  63 W14       30.45F WCI  17
ZANESVILLE     CLOUDY    28  18  66 W10       30.43S WCI  19
NEW PHILLY     LGT SNOW  26  20  77 W8        30.42R WCI  18
$$



USA.gov is the U.S. government's official web portal to all federal, state and local government web resources and services.